| time (UTC) | temp F | wind direction | speed MPH | gust MPH | rain 1hr in | rain 24hr in | rain mn in | humidity % | barometer mb |
| 20260906105027 | 68 | 134 | 4.0 | 4.0 | 0.00 | 0.00 | 0.00 | 62 | 1019.8 |
| 20260906104525 | 68 | 163 | 1.0 | 2.0 | 0.00 | 0.00 | 0.00 | 62 | 1019.6 |
| 20260906104021 | 68 | 105 | 4.0 | 4.0 | 0.00 | 0.00 | 0.00 | 62 | 1019.5 |
| 20260906103519 | 68 | 95 | 2.0 | 3.0 | 0.00 | 0.00 | 0.00 | 62 | 1019.6 |
| 20260906103014 | 68 | 138 | 5.0 | 7.0 | 0.00 | 0.00 | 0.00 | 62 | 1019.5 |
| 20260906102514 | 68 | 136 | 2.0 | 2.0 | 0.00 | 0.00 | 0.00 | 62 | 1019.6 |
| 20260906102015 | 68 | 107 | 5.0 | 7.0 | 0.00 | 0.00 | 0.00 | 62 | 1019.4 |
| 20260906101509 | 68 | 97 | 6.0 | 7.0 | 0.00 | 0.00 | 0.00 | 62 | 1019.5 |
| 20260906101004 | 68 | 133 | 4.0 | 4.0 | 0.00 | 0.00 | 0.00 | 62 | 1019.7 |
| 20260906100500 | 68 | 88 | 6.0 | 8.0 | 0.00 | 0.00 | 0.00 | 62 | 1019.4 |
| 20260906095954 | 68 | 142 | 4.0 | 4.0 | 0.00 | 0.00 | 0.00 | 62 | 1019.6 |
| 20260906095449 | 68 | 98 | 2.0 | 3.0 | 0.00 | 0.00 | 0.00 | 62 | 1019.3 |
| 20260906094944 | 68 | 121 | 8.0 | 9.0 | 0.00 | 0.00 | 0.00 | 62 | 1019.2 |
| 20260906094438 | 68 | 91 | 7.0 | 9.0 | 0.00 | 0.00 | 0.00 | 62 | 1019.1 |
| 20260906093934 | 68 | 144 | 1.0 | 2.0 | 0.00 | 0.00 | 0.00 | 62 | 1019.0 |
| 20260906093430 | 68 | 96 | 3.0 | 3.0 | 0.00 | 0.00 | 0.00 | 62 | 1018.9 |
| 20260906092930 | 68 | 93 | 1.0 | 2.0 | 0.00 | 0.00 | 0.00 | 62 | 1018.9 |
| 20260906092429 | 68 | 172 | 0.0 | 1.0 | 0.00 | 0.00 | 0.00 | 62 | 1018.7 |
| 20260906091925 | 68 | 120 | 1.0 | 2.0 | 0.00 | 0.00 | 0.00 | 62 | 1018.8 |
| 20260906091421 | 69 | 85 | 2.0 | 2.0 | 0.00 | 0.00 | 0.00 | 62 | 1018.7 |
| 20260906090917 | 69 | 159 | 2.0 | 3.0 | 0.00 | 0.00 | 0.00 | 62 | 1019.0 |
| 20260906090412 | 69 | 97 | 2.0 | 3.0 | 0.00 | 0.00 | 0.00 | 62 | 1018.7 |
| 20260906085907 | 69 | 129 | 2.0 | 2.0 | 0.00 | 0.00 | 0.00 | 62 | 1018.7 |
| 20260906085405 | 69 | 119 | 2.0 | 2.0 | 0.00 | 0.00 | 0.00 | 62 | 1018.8 |
| 20260906084905 | 69 | 120 | 2.0 | 2.0 | 0.00 | 0.00 | 0.00 | 62 | 1019.0 |
| 20260906084400 | 69 | 102 | 3.0 | 3.0 | 0.00 | 0.00 | 0.00 | 62 | 1018.9 |
| 20260906083854 | 69 | 115 | 4.0 | 4.0 | 0.00 | 0.00 | 0.00 | 62 | 1019.1 |
| 20260906083349 | 69 | 142 | 1.0 | 2.0 | 0.00 | 0.00 | 0.00 | 62 | 1019.1 |
| 20260906082849 | 69 | 146 | 4.0 | 4.0 | 0.00 | 0.00 | 0.00 | 62 | 1019.0 |
| 20260906082344 | 69 | 143 | 1.0 | 1.0 | 0.00 | 0.00 | 0.00 | 62 | 1019.0 |
| 20260906081840 | 69 | 129 | 2.0 | 3.0 | 0.00 | 0.00 | 0.00 | 62 | 1018.8 |
| 20260906081335 | 69 | 112 | 1.0 | 2.0 | 0.00 | 0.00 | 0.00 | 62 | 1018.8 |
| 20260906080832 | 69 | 72 | 1.0 | 2.0 | 0.00 | 0.00 | 0.00 | 62 | 1019.0 |
| 20260906080328 | 69 | 130 | 1.0 | 1.0 | 0.00 | 0.00 | 0.00 | 62 | 1018.8 |
| 20260906075827 | 70 | 99 | 3.0 | 4.0 | 0.00 | 0.00 | 0.00 | 62 | 1018.9 |
| 20260906075327 | 70 | 100 | 1.0 | 1.0 | 0.00 | 0.00 | 0.00 | 62 | 1018.8 |
| 20260906074823 | 70 | 97 | 4.0 | 4.0 | 0.00 | 0.00 | 0.00 | 62 | 1019.0 |
| 20260906074322 | 70 | 183 | 0.0 | 0.0 | 0.00 | 0.00 | 0.00 | 62 | 1019.1 |
| 20260906073821 | 70 | 150 | 1.0 | 2.0 | 0.00 | 0.00 | 0.00 | 62 | 1018.9 |
| 20260906073322 | 70 | 138 | 2.0 | 2.0 | 0.00 | 0.00 | 0.00 | 62 | 1019.1 |
| 20260906072818 | 70 | 104 | 0.0 | 1.0 | 0.00 | 0.00 | 0.00 | 62 | 1018.8 |
| 20260906072314 | 70 | 175 | 1.0 | 1.0 | 0.00 | 0.00 | 0.00 | 62 | 1019.0 |
| 20260906071809 | 70 | 139 | 1.0 | 2.0 | 0.00 | 0.00 | 0.00 | 62 | 1018.8 |
| 20260906071304 | 70 | 103 | 3.0 | 4.0 | 0.00 | 0.00 | 0.00 | 62 | 1018.9 |
| 20260906070801 | 70 | 123 | 2.0 | 2.0 | 0.00 | 0.00 | 0.00 | 62 | 1019.1 |
| 20260906070256 | 70 | 109 | 1.0 | 2.0 | 0.00 | 0.00 | 0.00 | 62 | 1019.1 |
| 20260906065755 | 70 | 60 | 1.0 | 2.0 | 0.00 | 0.00 | 0.00 | 62 | 1019.0 |
| 20260906065251 | 70 | 154 | 1.0 | 1.0 | 0.00 | 0.00 | 0.00 | 62 | 1019.0 |
| 20260906064747 | 71 | 139 | 1.0 | 1.0 | 0.00 | 0.00 | 0.00 | 62 | 1019.1 |
| 20260906064243 | 71 | 141 | 4.0 | 4.0 | 0.00 | 0.00 | 0.00 | 62 | 1019.1 |
| 20260906063737 | 71 | 47 | 3.0 | 3.0 | 0.00 | 0.00 | 0.00 | 62 | 1019.5 |
| 20260906063233 | 71 | 170 | 1.0 | 2.0 | 0.00 | 0.00 | 0.00 | 62 | 1019.4 |
| 20260906062728 | 71 | 25 | 2.0 | 3.0 | 0.00 | 0.00 | 0.00 | 62 | 1019.4 |
| 20260906062227 | 71 | 70 | 0.0 | 1.0 | 0.00 | 0.00 | 0.00 | 62 | 1019.3 |
| 20260906061723 | 71 | 97 | 4.0 | 4.0 | 0.00 | 0.00 | 0.00 | 62 | 1019.5 |
| 20260906061219 | 71 | 109 | 2.0 | 2.0 | 0.00 | 0.00 | 0.00 | 62 | 1019.5 |
| 20260906060714 | 71 | 129 | 2.0 | 3.0 | 0.00 | 0.00 | 0.00 | 62 | 1019.5 |
| 20260906060212 | 71 | 68 | 1.0 | 2.0 | 0.00 | 0.00 | 0.00 | 62 | 1019.6 |
| 20260906055707 | 71 | 46 | 2.0 | 3.0 | 0.00 | 0.00 | 0.00 | 62 | 1019.6 |
| 20260906055202 | 71 | 143 | 1.0 | 2.0 | 0.00 | 0.00 | 0.00 | 62 | 1019.4 |
| 20260906054658 | 71 | 152 | 2.0 | 3.0 | 0.00 | 0.00 | 0.00 | 62 | 1019.6 |
| 20260906054158 | 71 | 132 | 3.0 | 4.0 | 0.00 | 0.00 | 0.00 | 62 | 1019.5 |
| 20260906053655 | 71 | 104 | 0.0 | 1.0 | 0.00 | 0.00 | 0.00 | 62 | 1019.5 |
| 20260906053150 | 71 | 23 | 2.0 | 2.0 | 0.00 | 0.00 | 0.00 | 62 | 1019.4 |
| 20260906052645 | 71 | 55 | 1.0 | 2.0 | 0.00 | 0.00 | 0.00 | 62 | 1019.4 |
| 20260906052141 | 71 | 47 | 1.0 | 2.0 | 0.00 | 0.00 | 0.00 | 62 | 1019.3 |
| 20260906051638 | 72 | 347 | 3.0 | 3.0 | 0.00 | 0.00 | 0.00 | 62 | 1019.2 |
| 20260906051137 | 72 | 97 | 1.0 | 1.0 | 0.00 | 0.00 | 0.00 | 62 | 1019.1 |
| 20260906050633 | 72 | 257 | 0.0 | 0.0 | 0.00 | 0.00 | 0.00 | 62 | 1019.0 |
| 20260906050128 | 72 | 67 | 3.0 | 3.0 | 0.00 | 0.00 | 0.00 | 62 | 1019.1 |
| 20260906045626 | 72 | 44 | 2.0 | 3.0 | 0.00 | 0.00 | 0.00 | 62 | 1019.2 |
| 20260906045122 | 72 | 129 | 1.0 | 2.0 | 0.00 | 0.00 | 0.00 | 62 | 1019.2 |
| 20260906044618 | 72 | 164 | 1.0 | 1.0 | 0.00 | 0.00 | 0.00 | 62 | 1019.3 |
| 20260906044113 | 72 | 321 | 1.0 | 1.0 | 0.00 | 0.00 | 0.00 | 62 | 1019.4 |
| 20260906043609 | 72 | 358 | 4.0 | 6.0 | 0.00 | 0.00 | 0.00 | 62 | 1019.0 |
| 20260906043104 | 72 | 140 | 2.0 | 3.0 | 0.00 | 0.00 | 0.00 | 62 | 1019.1 |
| 20260906042603 | 71 | 125 | 2.0 | 3.0 | 0.00 | 0.00 | 0.00 | 62 | 1019.1 |
| 20260906042058 | 71 | 118 | 2.0 | 3.0 | 0.00 | 0.00 | 0.00 | 62 | 1019.4 |
| 20260906041554 | 71 | 64 | 1.0 | 2.0 | 0.00 | 0.00 | 0.00 | 62 | 1019.2 |
| 20260906041049 | 71 | 298 | 2.0 | 2.0 | 0.00 | 0.00 | 0.00 | 62 | 1019.4 |
| 20260906040544 | 71 | 324 | 2.0 | 2.0 | 0.00 | 0.00 | 0.00 | 62 | 1019.4 |
| 20260906040039 | 71 | 205 | 0.0 | 0.0 | 0.00 | 0.00 | 0.00 | 62 | 1019.1 |
| 20260906035534 | 71 | 154 | 1.0 | 1.0 | 0.00 | 0.00 | 0.00 | 62 | 1019.1 |
| 20260906035031 | 71 | 197 | 0.0 | 0.0 | 0.00 | 0.00 | 0.00 | 62 | 1019.0 |
| 20260906034530 | 71 | 268 | 2.0 | 2.0 | 0.00 | 0.00 | 0.00 | 62 | 1019.2 |
| 20260906034025 | 71 | 173 | 0.0 | 0.0 | 0.00 | 0.00 | 0.00 | 62 | 1019.1 |
| 20260906033520 | 71 | 210 | 0.0 | 0.0 | 0.00 | 0.00 | 0.00 | 62 | 1019.1 |
| 20260906033016 | 71 | 303 | 0.0 | 1.0 | 0.00 | 0.00 | 0.00 | 62 | 1019.2 |
| 20260906032513 | 71 | 249 | 0.0 | 1.0 | 0.00 | 0.00 | 0.00 | 62 | 1019.0 |
| 20260906032012 | 72 | 88 | 1.0 | 1.0 | 0.00 | 0.00 | 0.00 | 62 | 1019.1 |
| 20260906031508 | 72 | 73 | 1.0 | 2.0 | 0.00 | 0.00 | 0.00 | 62 | 1018.9 |
| 20260906031003 | 72 | 354 | 3.0 | 3.0 | 0.00 | 0.00 | 0.00 | 62 | 1018.6 |
| 20260906030457 | 72 | 227 | 0.0 | 0.0 | 0.00 | 0.00 | 0.00 | 62 | 1018.6 |
| 20260906025957 | 73 | 233 | 0.0 | 0.0 | 0.00 | 0.00 | 0.00 | 63 | 1018.6 |
| 20260906025457 | 73 | 203 | 0.0 | 0.0 | 0.00 | 0.00 | 0.00 | 63 | 1018.5 |
| 20260906024956 | 73 | 230 | 0.0 | 0.0 | 0.00 | 0.00 | 0.00 | 63 | 1018.6 |
| 20260906024456 | 73 | 255 | 1.0 | 1.0 | 0.00 | 0.00 | 0.00 | 63 | 1018.6 |
| 20260906023956 | 73 | 207 | 0.0 | 0.0 | 0.00 | 0.00 | 0.00 | 63 | 1018.3 |
| 20260906023452 | 73 | 198 | 0.0 | 0.0 | 0.00 | 0.00 | 0.00 | 63 | 1018.2 |
| 20260906022947 | 73 | 241 | 0.0 | 0.0 | 0.00 | 0.00 | 0.00 | 63 | 1018.3 |
| 20260906022442 | 73 | 242 | 1.0 | 1.0 | 0.00 | 0.00 | 0.00 | 63 | 1018.4 |
| 20260906021937 | 73 | 198 | 0.0 | 0.0 | 0.00 | 0.00 | 0.00 | 63 | 1017.9 |
| 20260906021438 | 73 | 181 | 2.0 | 2.0 | 0.00 | 0.00 | 0.00 | 63 | 1018.0 |
| 20260906020932 | 73 | 175 | 1.0 | 1.0 | 0.00 | 0.00 | 0.00 | 63 | 1018.2 |
| 20260906020427 | 73 | 288 | 1.0 | 2.0 | 0.00 | 0.00 | 0.00 | 63 | 1018.5 |
| 20260906015921 | 73 | 304 | 2.0 | 2.0 | 0.00 | 0.00 | 0.00 | 63 | 1018.1 |
| 20260906015421 | 74 | 354 | 2.0 | 3.0 | 0.00 | 0.00 | 0.00 | 63 | 1018.1 |
| 20260906014920 | 74 | 152 | 0.0 | 0.0 | 0.00 | 0.00 | 0.00 | 63 | 1018.0 |
| 20260906014420 | 74 | 182 | 0.0 | 0.0 | 0.00 | 0.00 | 0.00 | 63 | 1017.8 |
| 20260906013917 | 74 | 176 | 0.0 | 0.0 | 0.00 | 0.00 | 0.00 | 63 | 1017.7 |
| 20260906013412 | 74 | 182 | 0.0 | 0.0 | 0.00 | 0.00 | 0.00 | 63 | 1017.7 |
| 20260906012908 | 75 | 184 | 0.0 | 0.0 | 0.00 | 0.00 | 0.00 | 63 | 1017.7 |
| 20260906012402 | 75 | 169 | 1.0 | 1.0 | 0.00 | 0.00 | 0.00 | 63 | 1017.5 |
| 20260906011901 | 75 | 199 | 0.0 | 0.0 | 0.00 | 0.00 | 0.00 | 63 | 1017.5 |
| 20260906011356 | 75 | 183 | 0.0 | 0.0 | 0.00 | 0.00 | 0.00 | 63 | 1017.4 |
| 20260906010852 | 75 | 117 | 2.0 | 2.0 | 0.00 | 0.00 | 0.00 | 63 | 1017.3 |
| 20260906010348 | 75 | 60 | 2.0 | 3.0 | 0.00 | 0.00 | 0.00 | 63 | 1017.2 |
| 20260906005843 | 75 | 66 | 3.0 | 3.0 | 0.00 | 0.00 | 0.00 | 63 | 1017.3 |
| 20260906005342 | 75 | 152 | 4.0 | 4.0 | 0.00 | 0.00 | 0.00 | 63 | 1017.2 |
| 20260906004841 | 75 | 41 | 4.0 | 6.0 | 0.00 | 0.00 | 0.00 | 63 | 1017.2 |
| 20260906004336 | 76 | 56 | 1.0 | 2.0 | 0.00 | 0.00 | 0.00 | 63 | 1017.2 |
| 20260906003831 | 76 | 100 | 6.0 | 7.0 | 0.00 | 0.00 | 0.00 | 63 | 1017.1 |
| 20260906003326 | 76 | 33 | 4.0 | 6.0 | 0.00 | 0.00 | 0.00 | 63 | 1017.0 |
| 20260906002822 | 76 | 32 | 3.0 | 3.0 | 0.00 | 0.00 | 0.00 | 63 | 1016.9 |
| 20260906002321 | 76 | 57 | 3.0 | 3.0 | 0.00 | 0.00 | 0.00 | 63 | 1016.8 |
| 20260906001817 | 77 | 66 | 0.0 | 0.0 | 0.00 | 0.00 | 0.00 | 63 | 1016.8 |
| 20260906001312 | 77 | 57 | 2.0 | 3.0 | 0.00 | 0.00 | 0.00 | 63 | 1016.8 |
| 20260906000813 | 77 | 52 | 1.0 | 2.0 | 0.00 | 0.00 | 0.00 | 63 | 1016.8 |
| 20260906000307 | 77 | 40 | 1.0 | 2.0 | 0.00 | 0.00 | 0.00 | 63 | 1016.7 |
| 20260905235802 | 77 | 100 | 4.0 | 4.0 | 0.00 | 0.00 | 0.00 | 63 | 1016.8 |
| 20260905235306 | 77 | 114 | 2.0 | 2.0 | 0.00 | 0.00 | 0.00 | 63 | 1016.8 |
| 20260905234758 | 77 | 86 | 2.0 | 3.0 | 0.00 | 0.00 | 0.00 | 63 | 1016.7 |
| 20260905234253 | 77 | 116 | 2.0 | 3.0 | 0.00 | 0.00 | 0.00 | 63 | 1016.9 |
| 20260905233748 | 78 | 92 | 5.0 | 7.0 | 0.00 | 0.00 | 0.00 | 63 | 1016.5 |
| 20260905233248 | 78 | 94 | 3.0 | 4.0 | 0.00 | 0.00 | 0.00 | 63 | 1016.7 |
| 20260905232747 | 78 | 158 | 4.0 | 6.0 | 0.00 | 0.00 | 0.00 | 63 | 1016.5 |
| 20260905232243 | 78 | 39 | 2.0 | 3.0 | 0.00 | 0.00 | 0.00 | 63 | 1016.5 |
| 20260905231739 | 78 | 56 | 2.0 | 3.0 | 0.00 | 0.00 | 0.00 | 63 | 1016.4 |
| 20260905231234 | 78 | 38 | 5.0 | 6.0 | 0.00 | 0.00 | 0.00 | 63 | 1016.4 |
| 20260905230730 | 78 | 77 | 2.0 | 3.0 | 0.00 | 0.00 | 0.00 | 63 | 1016.4 |
| 20260905230228 | 78 | 30 | 4.0 | 6.0 | 0.00 | 0.00 | 0.00 | 63 | 1016.5 |
| 20260905225727 | 78 | 35 | 4.0 | 4.0 | 0.00 | 0.00 | 0.00 | 63 | 1016.3 |
| 20260905225223 | 78 | 87 | 3.0 | 4.0 | 0.00 | 0.00 | 0.00 | 63 | 1016.4 |
| 20260905224722 | 78 | 84 | 3.0 | 4.0 | 0.00 | 0.00 | 0.00 | 63 | 1016.3 |
| 20260905224217 | 79 | 101 | 2.0 | 3.0 | 0.00 | 0.00 | 0.00 | 63 | 1016.5 |
| 20260905223714 | 79 | 131 | 2.0 | 3.0 | 0.00 | 0.00 | 0.00 | 63 | 1016.7 |
| 20260905223210 | 79 | 44 | 4.0 | 4.0 | 0.00 | 0.00 | 0.00 | 63 | 1016.9 |
| 20260905222706 | 79 | 39 | 4.0 | 6.0 | 0.00 | 0.00 | 0.00 | 63 | 1016.9 |
| 20260905222205 | 79 | 46 | 4.0 | 6.0 | 0.00 | 0.00 | 0.00 | 63 | 1016.7 |
| 20260905221701 | 79 | 18 | 5.0 | 7.0 | 0.00 | 0.00 | 0.00 | 63 | 1016.5 |
| 20260905221158 | 79 | 62 | 2.0 | 3.0 | 0.00 | 0.00 | 0.00 | 63 | 1016.5 |
| 20260905220653 | 79 | 30 | 1.0 | 2.0 | 0.00 | 0.00 | 0.00 | 63 | 1016.7 |
| 20260905220149 | 79 | 65 | 2.0 | 3.0 | 0.00 | 0.00 | 0.00 | 63 | 1016.5 |
| 20260905215648 | 79 | 120 | 1.0 | 1.0 | 0.00 | 0.00 | 0.00 | 63 | 1016.8 |
| 20260905215144 | 80 | 52 | 4.0 | 4.0 | 0.00 | 0.00 | 0.00 | 63 | 1016.7 |
| 20260905214640 | 80 | 24 | 3.0 | 4.0 | 0.00 | 0.00 | 0.00 | 63 | 1016.9 |
| 20260905214135 | 80 | 35 | 4.0 | 6.0 | 0.00 | 0.00 | 0.00 | 63 | 1016.8 |
| 20260905213630 | 80 | 55 | 1.0 | 1.0 | 0.00 | 0.00 | 0.00 | 63 | 1016.9 |
| 20260905213125 | 80 | 58 | 1.0 | 1.0 | 0.00 | 0.00 | 0.00 | 63 | 1017.0 |
| 20260905212621 | 80 | 70 | 2.0 | 2.0 | 0.00 | 0.00 | 0.00 | 63 | 1016.8 |
| 20260905212120 | 80 | 72 | 1.0 | 1.0 | 0.00 | 0.00 | 0.00 | 63 | 1016.8 |
| 20260905211615 | 80 | 75 | 2.0 | 2.0 | 0.00 | 0.00 | 0.00 | 63 | 1016.8 |
| 20260905211111 | 80 | 37 | 3.0 | 3.0 | 0.00 | 0.00 | 0.00 | 63 | 1016.8 |
| 20260905210607 | 81 | 70 | 6.0 | 8.0 | 0.00 | 0.00 | 0.00 | 63 | 1016.5 |
| 20260905205601 | 81 | 34 | 4.0 | 7.0 | 0.00 | 0.00 | 0.00 | 63 | 1016.8 |
| 20260905205100 | 81 | 51 | 2.0 | 4.0 | 0.00 | 0.00 | 0.00 | 63 | 1016.8 |
| 20260905204555 | 80 | 36 | 4.0 | 4.0 | 0.00 | 0.00 | 0.00 | 63 | 1016.7 |
| 20260905204050 | 80 | 73 | 5.0 | 8.0 | 0.00 | 0.00 | 0.00 | 63 | 1017.0 |
| 20260905203550 | 80 | 69 | 3.0 | 4.0 | 0.00 | 0.00 | 0.00 | 63 | 1016.8 |
| 20260905203045 | 80 | 40 | 2.0 | 4.0 | 0.00 | 0.00 | 0.00 | 63 | 1016.9 |
| 20260905202540 | 81 | 49 | 4.0 | 4.0 | 0.00 | 0.00 | 0.00 | 63 | 1017.0 |
| 20260905202036 | 80 | 59 | 2.0 | 3.0 | 0.00 | 0.00 | 0.00 | 63 | 1017.0 |
| 20260905201532 | 81 | 94 | 3.0 | 4.0 | 0.00 | 0.00 | 0.00 | 63 | 1016.9 |
| 20260905201031 | 81 | 50 | 4.0 | 6.0 | 0.00 | 0.00 | 0.00 | 63 | 1017.0 |
| 20260905200527 | 81 | 56 | 2.0 | 2.0 | 0.00 | 0.00 | 0.00 | 63 | 1017.3 |
| 20260905200026 | 81 | 25 | 8.0 | 9.0 | 0.00 | 0.00 | 0.00 | 63 | 1017.2 |
| 20260905195520 | 81 | 23 | 2.0 | 2.0 | 0.00 | 0.00 | 0.00 | 63 | 1017.3 |
| 20260905195016 | 82 | 53 | 4.0 | 6.0 | 0.00 | 0.00 | 0.00 | 64 | 1017.5 |
| 20260905194516 | 81 | 333 | 6.0 | 8.0 | 0.00 | 0.00 | 0.00 | 63 | 1017.8 |
| 20260905194016 | 81 | 48 | 3.0 | 3.0 | 0.00 | 0.00 | 0.00 | 63 | 1017.8 |
| 20260905193516 | 81 | 30 | 1.0 | 2.0 | 0.00 | 0.00 | 0.00 | 63 | 1017.8 |
| 20260905193011 | 81 | 33 | 3.0 | 3.0 | 0.00 | 0.00 | 0.00 | 63 | 1017.9 |
| 20260905192506 | 82 | 27 | 2.0 | 2.0 | 0.00 | 0.00 | 0.00 | 63 | 1017.8 |
| 20260905192002 | 81 | 184 | 1.0 | 2.0 | 0.00 | 0.00 | 0.00 | 63 | 1018.1 |
| 20260905191501 | 80 | 351 | 4.0 | 4.0 | 0.00 | 0.00 | 0.00 | 63 | 1018.2 |
| 20260905191000 | 80 | 349 | 7.0 | 8.0 | 0.00 | 0.00 | 0.00 | 63 | 1018.2 |
| 20260905190458 | 79 | 345 | 7.0 | 10.0 | 0.00 | 0.00 | 0.00 | 63 | 1018.2 |
| 20260905185957 | 79 | 18 | 8.0 | 10.0 | 0.00 | 0.00 | 0.00 | 63 | 1018.2 |
| 20260905185452 | 78 | 26 | 4.0 | 4.0 | 0.00 | 0.00 | 0.00 | 63 | 1018.2 |
| 20260905184951 | 78 | 20 | 3.0 | 4.0 | 0.00 | 0.00 | 0.00 | 63 | 1018.1 |
| 20260905184446 | 78 | 138 | 1.0 | 1.0 | 0.00 | 0.00 | 0.00 | 63 | 1018.4 |
| 20260905183945 | 77 | 356 | 7.0 | 8.0 | 0.00 | 0.00 | 0.00 | 63 | 1018.3 |
| 20260905183439 | 77 | 355 | 3.0 | 4.0 | 0.00 | 0.00 | 0.00 | 63 | 1018.3 |
| 20260905182934 | 77 | 40 | 2.0 | 3.0 | 0.00 | 0.00 | 0.00 | 63 | 1018.3 |
| 20260905182433 | 76 | 356 | 2.0 | 2.0 | 0.00 | 0.00 | 0.00 | 63 | 1018.3 |
| 20260905181929 | 76 | 1 | 4.0 | 6.0 | 0.00 | 0.00 | 0.00 | 63 | 1018.4 |
| 20260905181429 | 76 | 33 | 2.0 | 2.0 | 0.00 | 0.00 | 0.00 | 63 | 1018.4 |
| 20260905180928 | 75 | 37 | 4.0 | 6.0 | 0.00 | 0.00 | 0.00 | 63 | 1018.4 |
| 20260905180423 | 75 | 31 | 3.0 | 4.0 | 0.00 | 0.00 | 0.00 | 63 | 1018.4 |
| 20260905175918 | 75 | 26 | 3.0 | 4.0 | 0.00 | 0.00 | 0.00 | 63 | 1018.5 |
| 20260905175418 | 75 | 352 | 6.0 | 7.0 | 0.00 | 0.00 | 0.00 | 63 | 1018.5 |
| 20260905174913 | 75 | 14 | 3.0 | 4.0 | 0.00 | 0.00 | 0.00 | 63 | 1018.6 |
| 20260905174409 | 75 | 354 | 4.0 | 4.0 | 0.00 | 0.00 | 0.00 | 63 | 1018.4 |
| 20260905173905 | 75 | 42 | 5.0 | 6.0 | 0.00 | 0.00 | 0.00 | 63 | 1018.4 |
| 20260905173401 | 75 | 48 | 4.0 | 6.0 | 0.00 | 0.00 | 0.00 | 63 | 1018.4 |
| 20260905172901 | 75 | 25 | 4.0 | 6.0 | 0.00 | 0.00 | 0.00 | 63 | 1018.4 |
| 20260905172358 | 75 | 7 | 7.0 | 8.0 | 0.00 | 0.00 | 0.00 | 63 | 1018.7 |
| 20260905171854 | 75 | 353 | 5.0 | 6.0 | 0.00 | 0.00 | 0.00 | 63 | 1018.5 |
| 20260905171351 | 74 | 310 | 5.0 | 6.0 | 0.00 | 0.00 | 0.00 | 63 | 1018.5 |
| 20260905170847 | 74 | 21 | 4.0 | 7.0 | 0.00 | 0.00 | 0.00 | 63 | 1018.6 |
| 20260905170343 | 74 | 27 | 3.0 | 4.0 | 0.00 | 0.00 | 0.00 | 63 | 1018.6 |
| 20260905165842 | 74 | 359 | 6.0 | 7.0 | 0.00 | 0.00 | 0.00 | 63 | 1018.7 |
| 20260905165338 | 74 | 13 | 5.0 | 8.0 | 0.00 | 0.00 | 0.00 | 63 | 1018.7 |
| 20260905164838 | 74 | 61 | 5.0 | 6.0 | 0.00 | 0.00 | 0.00 | 63 | 1018.5 |
| 20260905164333 | 73 | 47 | 5.0 | 6.0 | 0.00 | 0.00 | 0.00 | 63 | 1018.7 |
| 20260905163828 | 73 | 64 | 5.0 | 7.0 | 0.00 | 0.00 | 0.00 | 63 | 1018.6 |
| 20260905163325 | 73 | 49 | 2.0 | 3.0 | 0.00 | 0.00 | 0.00 | 63 | 1018.6 |
| 20260905162821 | 73 | 31 | 4.0 | 6.0 | 0.00 | 0.00 | 0.00 | 63 | 1018.6 |
| 20260905162320 | 72 | 30 | 4.0 | 6.0 | 0.00 | 0.00 | 0.00 | 63 | 1018.7 |
| 20260905161815 | 72 | 51 | 1.0 | 2.0 | 0.00 | 0.00 | 0.00 | 62 | 1018.6 |
| 20260905161314 | 72 | 37 | 3.0 | 4.0 | 0.00 | 0.00 | 0.00 | 62 | 1018.6 |
| 20260905160812 | 72 | 17 | 4.0 | 4.0 | 0.00 | 0.00 | 0.00 | 62 | 1018.9 |
| 20260905160307 | 72 | 61 | 2.0 | 3.0 | 0.00 | 0.00 | 0.00 | 62 | 1018.6 |
| 20260905155801 | 72 | 70 | 2.0 | 3.0 | 0.00 | 0.00 | 0.00 | 62 | 1018.7 |
| 20260905155255 | 72 | 35 | 4.0 | 4.0 | 0.00 | 0.00 | 0.00 | 62 | 1018.9 |
| 20260905154754 | 72 | 62 | 1.0 | 4.0 | 0.00 | 0.00 | 0.00 | 62 | 1018.9 |
| 20260905154251 | 72 | 4 | 4.0 | 7.0 | 0.00 | 0.00 | 0.00 | 62 | 1018.8 |
| 20260905153746 | 72 | 61 | 3.0 | 3.0 | 0.00 | 0.00 | 0.00 | 62 | 1018.7 |
| 20260905153242 | 72 | 45 | 2.0 | 3.0 | 0.00 | 0.00 | 0.00 | 62 | 1018.6 |
| 20260905152737 | 72 | 53 | 5.0 | 9.0 | 0.00 | 0.00 | 0.00 | 62 | 1018.3 |
| 20260905152236 | 72 | 26 | 3.0 | 3.0 | 0.00 | 0.00 | 0.00 | 62 | 1018.2 |
| 20260905151736 | 72 | 16 | 6.0 | 8.0 | 0.00 | 0.00 | 0.00 | 62 | 1018.2 |
| 20260905151233 | 72 | 44 | 5.0 | 7.0 | 0.00 | 0.00 | 0.00 | 62 | 1018.0 |
| 20260905150732 | 72 | 40 | 3.0 | 3.0 | 0.00 | 0.00 | 0.00 | 62 | 1018.0 |
| 20260905150231 | 72 | 356 | 8.0 | 9.0 | 0.00 | 0.00 | 0.00 | 62 | 1017.9 |
| 20260905145729 | 71 | 7 | 6.0 | 7.0 | 0.00 | 0.00 | 0.00 | 62 | 1017.8 |
| 20260905145224 | 71 | 38 | 8.0 | 9.0 | 0.00 | 0.00 | 0.00 | 62 | 1018.0 |
| 20260905144723 | 71 | 12 | 5.0 | 8.0 | 0.00 | 0.00 | 0.00 | 62 | 1017.8 |
| 20260905144218 | 71 | 14 | 6.0 | 8.0 | 0.00 | 0.00 | 0.00 | 62 | 1017.8 |
| 20260905143717 | 71 | 12 | 5.0 | 7.0 | 0.00 | 0.00 | 0.00 | 62 | 1017.7 |
| 20260905143217 | 71 | 28 | 5.0 | 6.0 | 0.00 | 0.00 | 0.00 | 62 | 1017.6 |
| 20260905142715 | 71 | 30 | 7.0 | 9.0 | 0.00 | 0.00 | 0.00 | 62 | 1017.6 |
| 20260905142210 | 71 | 34 | 3.0 | 6.0 | 0.00 | 0.00 | 0.00 | 62 | 1017.6 |
| 20260905141706 | 71 | 23 | 6.0 | 7.0 | 0.00 | 0.00 | 0.00 | 62 | 1017.6 |
| 20260905141202 | 72 | 8 | 11.0 | 13.0 | 0.00 | 0.00 | 0.00 | 62 | 1017.3 |
| 20260905140656 | 72 | 41 | 6.0 | 8.0 | 0.00 | 0.00 | 0.00 | 62 | 1017.5 |
| 20260905140151 | 72 | 346 | 6.0 | 7.0 | 0.00 | 0.00 | 0.00 | 62 | 1017.4 |
| 20260905135646 | 72 | 3 | 8.0 | 10.0 | 0.00 | 0.00 | 0.00 | 62 | 1017.3 |
| 20260905135142 | 72 | 30 | 6.0 | 7.0 | 0.00 | 0.00 | 0.00 | 62 | 1017.2 |
| 20260905134641 | 72 | 35 | 4.0 | 6.0 | 0.00 | 0.00 | 0.00 | 62 | 1017.1 |
| 20260905134140 | 73 | 356 | 6.0 | 7.0 | 0.00 | 0.00 | 0.00 | 63 | 1017.2 |
| 20260905133636 | 73 | 20 | 3.0 | 4.0 | 0.00 | 0.00 | 0.00 | 63 | 1017.1 |
| 20260905133136 | 73 | 18 | 4.0 | 4.0 | 0.00 | 0.00 | 0.00 | 63 | 1017.1 |
| 20260905132635 | 73 | 35 | 2.0 | 2.0 | 0.00 | 0.00 | 0.00 | 63 | 1017.1 |
| 20260905132130 | 73 | 16 | 5.0 | 6.0 | 0.00 | 0.00 | 0.00 | 63 | 1016.8 |
| 20260905131625 | 73 | 22 | 4.0 | 6.0 | 0.00 | 0.00 | 0.00 | 62 | 1016.9 |
| 20260905131120 | 72 | 17 | 3.0 | 4.0 | 0.00 | 0.00 | 0.00 | 62 | 1016.7 |
| 20260905130615 | 72 | 39 | 2.0 | 2.0 | 0.00 | 0.00 | 0.00 | 62 | 1016.5 |
| 20260905130115 | 72 | 269 | 0.0 | 0.0 | 0.00 | 0.00 | 0.00 | 62 | 1016.4 |
| 20260905125615 | 72 | 229 | 0.0 | 0.0 | 0.00 | 0.00 | 0.00 | 62 | 1016.1 |
| 20260905125110 | 71 | 245 | 0.0 | 0.0 | 0.00 | 0.00 | 0.00 | 62 | 1016.0 |
| 20260905124607 | 71 | 252 | 1.0 | 1.0 | 0.00 | 0.00 | 0.00 | 62 | 1016.1 |
| 20260905124103 | 71 | 273 | 1.0 | 2.0 | 0.00 | 0.00 | 0.00 | 62 | 1016.1 |
| 20260905123558 | 71 | 27 | 1.0 | 1.0 | 0.00 | 0.00 | 0.00 | 62 | 1016.1 |
| 20260905123055 | 71 | 253 | 0.0 | 0.0 | 0.00 | 0.00 | 0.00 | 62 | 1015.9 |
| 20260905122555 | 70 | 215 | 0.0 | 0.0 | 0.00 | 0.00 | 0.00 | 62 | 1016.0 |
| 20260905122055 | 70 | 222 | 0.0 | 0.0 | 0.00 | 0.00 | 0.00 | 62 | 1016.0 |
| 20260905121549 | 70 | 222 | 0.0 | 0.0 | 0.00 | 0.00 | 0.00 | 62 | 1016.0 |
| 20260905121045 | 70 | 225 | 1.0 | 1.0 | 0.00 | 0.00 | 0.00 | 62 | 1016.1 |
| 20260905120544 | 70 | 216 | 0.0 | 1.0 | 0.00 | 0.00 | 0.00 | 62 | 1016.1 |
| 20260905120039 | 70 | 216 | 1.0 | 1.0 | 0.00 | 0.00 | 0.00 | 62 | 1015.9 |
| 20260905115538 | 70 | 217 | 0.0 | 0.0 | 0.00 | 0.00 | 0.00 | 62 | 1015.9 |
| 20260905115033 | 70 | 227 | 0.0 | 0.0 | 0.00 | 0.00 | 0.00 | 62 | 1016.0 |
| 20260905114532 | 70 | 197 | 0.0 | 0.0 | 0.00 | 0.00 | 0.00 | 62 | 1015.7 |
| 20260905114031 | 70 | 197 | 0.0 | 0.0 | 0.00 | 0.00 | 0.00 | 62 | 1015.7 |
| 20260905113527 | 70 | 197 | 0.0 | 0.0 | 0.00 | 0.00 | 0.00 | 62 | 1015.5 |
| 20260905113022 | 69 | 197 | 0.0 | 0.0 | 0.00 | 0.00 | 0.00 | 62 | 1015.4 |
| 20260905112517 | 69 | 205 | 0.0 | 0.0 | 0.00 | 0.00 | 0.00 | 62 | 1015.4 |
| 20260905112013 | 69 | 232 | 0.0 | 0.0 | 0.00 | 0.00 | 0.00 | 62 | 1015.6 |
| 20260905111507 | 69 | 230 | 0.0 | 0.0 | 0.00 | 0.00 | 0.00 | 62 | 1015.9 |
| 20260905111001 | 69 | 235 | 0.0 | 0.0 | 0.00 | 0.00 | 0.00 | 62 | 1015.6 |
| 20260905110501 | 69 | 232 | 0.0 | 0.0 | 0.00 | 0.00 | 0.00 | 62 | 1015.7 |
| 20260905110000 | 69 | 238 | 0.0 | 0.0 | 0.00 | 0.00 | 0.00 | 62 | 1015.8 |
| 20260905105455 | 69 | 256 | 0.0 | 1.0 | 0.00 | 0.00 | 0.00 | 62 | 1015.7 |